| time (UTC) | temp F | wind direction | speed MPH | gust MPH | rain 1hr in | rain 24hr in | rain mn in | humidity % | barometer mb |
| 20260901112522 | 60 | 263 | 0.0 | 0.0 | 0.00 | 0.11 | 0.11 | 85 | 1016.4 |
| 20260901112026 | 60 | 263 | 0.0 | 0.0 | 0.00 | 0.11 | 0.11 | 85 | 1016.4 |
| 20260901111525 | 60 | 263 | 0.0 | 0.0 | 0.00 | 0.11 | 0.11 | 85 | 1016.4 |
| 20260901111025 | 60 | 263 | 0.0 | 0.0 | 0.00 | 0.11 | 0.11 | 85 | 1016.3 |
| 20260901110526 | 60 | 263 | 0.0 | 0.0 | 0.00 | 0.11 | 0.11 | 85 | 1016.3 |
| 20260901104734 | 60 | 263 | 0.0 | 0.0 | 0.00 | 0.11 | 0.11 | 85 | 1016.2 |
| 20260901103556 | 60 | 263 | 1.0 | 5.0 | 0.00 | 0.11 | 0.11 | 86 | 1016.3 |
| 20260901102444 | 60 | 263 | 1.0 | 5.0 | 0.00 | 0.11 | 0.11 | 86 | 1016.1 |
| 20260901101937 | 60 | 263 | 2.0 | 6.0 | 0.00 | 0.11 | 0.11 | 87 | 1016.1 |
| 20260901101418 | 60 | 263 | 2.0 | 6.0 | 0.00 | 0.11 | 0.11 | 87 | 1016.1 |
| 20260901100903 | 59 | 263 | 2.0 | 6.0 | 0.00 | 0.11 | 0.11 | 87 | 1015.9 |
| 20260901100357 | 59 | 263 | 0.0 | 6.0 | 0.00 | 0.11 | 0.11 | 88 | 1015.9 |
| 20260901095844 | 59 | 263 | 0.0 | 3.0 | 0.00 | 0.11 | 0.11 | 88 | 1015.9 |
| 20260901095349 | 59 | 263 | 0.0 | 0.0 | 0.00 | 0.11 | 0.11 | 88 | 1015.9 |
| 20260901094832 | 59 | 263 | 0.0 | 2.0 | 0.00 | 0.11 | 0.11 | 88 | 1015.9 |
| 20260901094322 | 59 | 263 | 0.0 | 0.0 | 0.00 | 0.11 | 0.11 | 88 | 1015.4 |
| 20260901093207 | 59 | 263 | 0.0 | 0.0 | 0.00 | 0.11 | 0.11 | 88 | 1015.4 |
| 20260901092651 | 59 | 263 | 0.0 | 0.0 | 0.00 | 0.11 | 0.11 | 88 | 1015.3 |
| 20260901091521 | 59 | 263 | 0.0 | 0.0 | 0.00 | 0.11 | 0.11 | 88 | 1015.3 |
| 20260901091015 | 59 | 263 | 0.0 | 5.0 | 0.00 | 0.11 | 0.11 | 88 | 1014.9 |
| 20260901085914 | 59 | 263 | 1.0 | 5.0 | 0.00 | 0.11 | 0.11 | 88 | 1014.9 |
| 20260901085403 | 59 | 263 | 0.0 | 4.0 | 0.00 | 0.11 | 0.11 | 88 | 1014.9 |
| 20260901084852 | 59 | 263 | 0.0 | 3.0 | 0.00 | 0.11 | 0.11 | 88 | 1014.9 |
| 20260901084345 | 59 | 263 | 0.0 | 0.0 | 0.00 | 0.11 | 0.11 | 87 | 1014.8 |
| 20260901083839 | 59 | 263 | 0.0 | 0.0 | 0.00 | 0.11 | 0.11 | 87 | 1014.8 |
| 20260901083322 | 59 | 263 | 1.0 | 4.0 | 0.00 | 0.11 | 0.11 | 87 | 1014.8 |
| 20260901082812 | 59 | 263 | 1.0 | 4.0 | 0.00 | 0.11 | 0.11 | 87 | 1014.8 |
| 20260901082316 | 59 | 263 | 1.0 | 4.0 | 0.00 | 0.11 | 0.11 | 87 | 1014.8 |
| 20260901081821 | 59 | 263 | 1.0 | 4.0 | 0.00 | 0.11 | 0.11 | 87 | 1014.8 |
| 20260901081303 | 59 | 263 | 1.0 | 6.0 | 0.00 | 0.11 | 0.11 | 87 | 1014.7 |
| 20260901080746 | 59 | 263 | 1.0 | 6.0 | 0.00 | 0.11 | 0.11 | 87 | 1014.7 |
| 20260901080243 | 59 | 263 | 1.0 | 6.0 | 0.00 | 0.11 | 0.11 | 87 | 1014.7 |
| 20260901075739 | 59 | 263 | 2.0 | 6.0 | 0.00 | 0.11 | 0.11 | 87 | 1014.4 |
| 20260901075221 | 59 | 263 | 2.0 | 6.0 | 0.00 | 0.11 | 0.11 | 87 | 1014.4 |
| 20260901074057 | 59 | 263 | 2.0 | 8.0 | 0.00 | 0.11 | 0.11 | 87 | 1014.3 |
| 20260901073601 | 59 | 263 | 2.0 | 9.0 | 0.00 | 0.11 | 0.11 | 87 | 1014.3 |
| 20260901073044 | 59 | 263 | 3.0 | 9.0 | 0.00 | 0.11 | 0.11 | 87 | 1014.3 |
| 20260901072528 | 59 | 263 | 3.0 | 10.0 | 0.00 | 0.11 | 0.11 | 86 | 1014.3 |
| 20260901072013 | 59 | 263 | 3.0 | 10.0 | 0.00 | 0.11 | 0.11 | 86 | 1014.3 |
| 20260901071459 | 59 | 263 | 4.0 | 10.0 | 0.00 | 0.11 | 0.11 | 86 | 1014.3 |
| 20260901070958 | 59 | 263 | 4.0 | 12.0 | 0.00 | 0.11 | 0.11 | 86 | 1014.3 |
| 20260901070451 | 59 | 263 | 3.0 | 12.0 | 0.03 | 0.11 | 0.11 | 85 | 1014.3 |
| 20260901065345 | 60 | 263 | 4.0 | 12.0 | 0.12 | 0.10 | 0.11 | 84 | 1014.9 |
| 20260901064205 | 61 | 263 | 2.0 | 5.0 | 0.12 | 0.08 | 0.09 | 82 | 1016.0 |
| 20260901063714 | 61 | 263 | 0.0 | 4.0 | 0.07 | 0.07 | 0.08 | 80 | 1016.0 |
| 20260901063212 | 62 | 263 | 0.0 | 2.0 | 0.14 | 0.07 | 0.07 | 79 | 1016.0 |
| 20260901062718 | 62 | 263 | 0.0 | 2.0 | 0.09 | 0.06 | 0.07 | 78 | 1016.1 |
| 20260901062208 | 62 | 263 | 0.0 | 0.0 | 0.10 | 0.05 | 0.06 | 76 | 1016.1 |
| 20260901061701 | 62 | 263 | 0.0 | 1.0 | 0.10 | 0.04 | 0.04 | 75 | 1016.1 |
| 20260901061200 | 63 | 263 | 0.0 | 1.0 | 0.11 | 0.03 | 0.03 | 74 | 1016.1 |
| 20260901060659 | 63 | 263 | 0.0 | 1.0 | 0.11 | 0.03 | 0.03 | 73 | 1016.1 |
| 20260901060141 | 63 | 263 | 1.0 | 0.0 | 0.13 | 0.02 | 0.02 | 72 | 1016.1 |
| 20260901055638 | 64 | 263 | 3.0 | 9.0 | 0.00 | 0.00 | 0.00 | 71 | 1016.4 |
| 20260901055118 | 64 | 263 | 5.0 | 19.0 | 0.00 | 0.00 | 0.00 | 69 | 1016.4 |
| 20260901053326 | 67 | 263 | 8.0 | 18.0 | 0.00 | 0.00 | 0.00 | 60 | 1015.8 |
| 20260901052815 | 68 | 263 | 6.0 | 18.0 | 0.00 | 0.00 | 0.00 | 57 | 1015.4 |
| 20260901052310 | 68 | 263 | 3.0 | 13.0 | 0.00 | 0.00 | 0.00 | 55 | 1015.4 |
| 20260901051814 | 68 | 263 | 2.0 | 9.0 | 0.00 | 0.00 | 0.00 | 55 | 1015.4 |
| 20260901051306 | 68 | 263 | 3.0 | 9.0 | 0.00 | 0.00 | 0.00 | 54 | 1015.0 |
| 20260901050759 | 68 | 263 | 2.0 | 10.0 | 0.00 | 0.00 | 0.00 | 54 | 1015.0 |
| 20260901050256 | 68 | 263 | 2.0 | 10.0 | 0.00 | 0.00 | 0.00 | 54 | 1015.0 |
| 20260901045806 | 68 | 263 | 2.0 | 14.0 | 0.00 | 0.00 | 0.00 | 54 | 1015.2 |
| 20260901045247 | 68 | 263 | 1.0 | 14.0 | 0.00 | 0.00 | 0.00 | 55 | 1015.2 |
| 20260901044755 | 68 | 263 | 2.0 | 14.0 | 0.00 | 0.00 | 0.00 | 55 | 1015.2 |
| 20260901044258 | 68 | 263 | 2.0 | 14.0 | 0.00 | 0.00 | 0.00 | 54 | 1015.3 |
| 20260901043759 | 69 | 263 | 2.0 | 12.0 | 0.00 | 0.00 | 0.00 | 54 | 1015.3 |
| 20260901043308 | 69 | 263 | 3.0 | 12.0 | 0.00 | 0.00 | 0.00 | 53 | 1015.3 |
| 20260901042132 | 69 | 263 | 3.0 | 12.0 | 0.00 | 0.00 | 0.00 | 52 | 1014.8 |
| 20260901041625 | 69 | 263 | 2.0 | 6.0 | 0.00 | 0.00 | 0.00 | 52 | 1014.8 |
| 20260901041133 | 69 | 263 | 2.0 | 6.0 | 0.00 | 0.00 | 0.00 | 52 | 1015.2 |
| 20260901040613 | 69 | 263 | 1.0 | 9.0 | 0.00 | 0.00 | 0.00 | 53 | 1015.2 |
| 20260901040111 | 69 | 263 | 2.0 | 9.0 | 0.00 | 0.00 | 0.00 | 53 | 1015.2 |
| 20260901035552 | 69 | 263 | 4.0 | 15.0 | 0.00 | 0.00 | 0.00 | 52 | 1015.2 |
| 20260901034428 | 69 | 263 | 4.0 | 15.0 | 0.00 | 0.00 | 0.00 | 52 | 1015.2 |
| 20260901033920 | 69 | 263 | 3.0 | 10.0 | 0.00 | 0.00 | 0.00 | 52 | 1015.4 |
| 20260901033414 | 69 | 263 | 4.0 | 16.0 | 0.00 | 0.00 | 0.00 | 52 | 1015.4 |
| 20260901032915 | 69 | 263 | 4.0 | 16.0 | 0.00 | 0.00 | 0.00 | 51 | 1015.4 |
| 20260901031741 | 69 | 263 | 6.0 | 14.0 | 0.00 | 0.00 | 0.00 | 51 | 1015.5 |
| 20260901031241 | 69 | 263 | 6.0 | 14.0 | 0.00 | 0.00 | 0.00 | 50 | 1016.0 |
| 20260901030724 | 69 | 263 | 5.0 | 18.0 | 0.00 | 0.00 | 0.00 | 50 | 1016.0 |
| 20260901030225 | 69 | 263 | 4.0 | 18.0 | 0.00 | 0.00 | 0.00 | 49 | 1016.0 |
| 20260901025733 | 69 | 263 | 4.0 | 18.0 | 0.00 | 0.00 | 0.00 | 49 | 1016.3 |
| 20260901024616 | 70 | 263 | 5.0 | 14.0 | 0.00 | 0.00 | 0.00 | 47 | 1016.3 |
| 20260901024115 | 71 | 263 | 5.0 | 16.0 | 0.00 | 0.00 | 0.00 | 46 | 1016.2 |
| 20260901023607 | 71 | 263 | 5.0 | 16.0 | 0.00 | 0.00 | 0.00 | 46 | 1016.2 |
| 20260901023109 | 71 | 263 | 5.0 | 17.0 | 0.00 | 0.00 | 0.00 | 46 | 1016.2 |
| 20260901022555 | 71 | 263 | 4.0 | 17.0 | 0.00 | 0.00 | 0.00 | 46 | 1016.3 |
| 20260901022037 | 71 | 263 | 6.0 | 17.0 | 0.00 | 0.00 | 0.00 | 47 | 1016.3 |
| 20260901021518 | 70 | 263 | 6.0 | 17.0 | 0.00 | 0.00 | 0.00 | 47 | 1016.3 |
| 20260901021003 | 70 | 263 | 4.0 | 12.0 | 0.00 | 0.00 | 0.00 | 48 | 1016.9 |
| 20260901020508 | 68 | 263 | 4.0 | 12.0 | 0.00 | 0.00 | 0.00 | 49 | 1016.9 |
| 20260901020003 | 68 | 263 | 3.0 | 11.0 | 0.00 | 0.00 | 0.00 | 50 | 1016.9 |
| 20260901015506 | 68 | 263 | 3.0 | 11.0 | 0.00 | 0.00 | 0.00 | 51 | 1017.0 |
| 20260901015014 | 67 | 263 | 4.0 | 11.0 | 0.00 | 0.00 | 0.00 | 51 | 1017.0 |
| 20260901014504 | 67 | 263 | 4.0 | 11.0 | 0.00 | 0.00 | 0.00 | 51 | 1017.0 |
| 20260901013346 | 67 | 263 | 3.0 | 12.0 | 0.00 | 0.00 | 0.00 | 51 | 1017.3 |
| 20260901012834 | 67 | 263 | 4.0 | 12.0 | 0.00 | 0.00 | 0.00 | 51 | 1016.9 |
| 20260901012334 | 66 | 263 | 5.0 | 15.0 | 0.00 | 0.00 | 0.00 | 51 | 1016.9 |
| 20260901011822 | 66 | 263 | 5.0 | 15.0 | 0.00 | 0.00 | 0.00 | 52 | 1016.9 |
| 20260901011319 | 66 | 263 | 6.0 | 15.0 | 0.00 | 0.00 | 0.00 | 52 | 1017.6 |
| 20260901010208 | 66 | 263 | 4.0 | 13.0 | 0.00 | 0.00 | 0.00 | 51 | 1017.6 |
| 20260901005705 | 66 | 263 | 3.0 | 13.0 | 0.00 | 0.00 | 0.00 | 51 | 1018.0 |
| 20260901005211 | 66 | 263 | 2.0 | 11.0 | 0.00 | 0.00 | 0.00 | 51 | 1018.0 |
| 20260901004710 | 66 | 263 | 3.0 | 11.0 | 0.00 | 0.00 | 0.00 | 51 | 1018.0 |
| 20260901004217 | 66 | 263 | 3.0 | 13.0 | 0.00 | 0.00 | 0.00 | 51 | 1017.6 |
| 20260901003725 | 65 | 263 | 4.0 | 13.0 | 0.00 | 0.00 | 0.00 | 51 | 1017.6 |
| 20260901003218 | 66 | 263 | 4.0 | 13.0 | 0.00 | 0.00 | 0.00 | 51 | 1017.6 |
| 20260901002716 | 66 | 263 | 4.0 | 13.0 | 0.00 | 0.00 | 0.00 | 50 | 1017.8 |
| 20260901002217 | 66 | 263 | 4.0 | 16.0 | 0.00 | 0.00 | 0.00 | 50 | 1017.8 |
| 20260901001715 | 66 | 263 | 3.0 | 16.0 | 0.00 | 0.00 | 0.00 | 50 | 1017.8 |
| 20260901001158 | 66 | 263 | 5.0 | 16.0 | 0.00 | 0.00 | 0.00 | 50 | 1018.0 |
| 20260901000700 | 66 | 263 | 6.0 | 16.0 | 0.00 | 0.00 | 0.00 | 49 | 1018.0 |
| 20260901000204 | 67 | 263 | 4.0 | 15.0 | 0.00 | 0.00 | 0.00 | 48 | 1018.0 |
| 20260831235648 | 67 | 263 | 5.0 | 15.0 | 0.00 | 0.00 | 0.00 | 48 | 1018.0 |
| 20260831235146 | 67 | 263 | 5.0 | 15.0 | 0.00 | 0.00 | 0.00 | 47 | 1018.0 |
| 20260831234635 | 67 | 263 | 5.0 | 14.0 | 0.00 | 0.00 | 0.00 | 48 | 1018.0 |
| 20260831234127 | 67 | 263 | 5.0 | 14.0 | 0.00 | 0.00 | 0.00 | 48 | 1018.3 |
| 20260831233617 | 66 | 263 | 3.0 | 11.0 | 0.00 | 0.00 | 0.00 | 50 | 1018.3 |
| 20260831233118 | 66 | 263 | 3.0 | 11.0 | 0.00 | 0.00 | 0.00 | 50 | 1018.3 |
| 20260831232603 | 65 | 263 | 3.0 | 11.0 | 0.00 | 0.00 | 0.00 | 51 | 1018.5 |
| 20260831232047 | 65 | 263 | 3.0 | 11.0 | 0.00 | 0.00 | 0.00 | 51 | 1018.5 |
| 20260831231547 | 64 | 263 | 3.0 | 10.0 | 0.00 | 0.00 | 0.00 | 52 | 1018.5 |
| 20260831231039 | 64 | 263 | 2.0 | 10.0 | 0.00 | 0.00 | 0.00 | 52 | 1018.5 |
| 20260831230525 | 64 | 263 | 1.0 | 7.0 | 0.00 | 0.00 | 0.00 | 52 | 1018.5 |
| 20260831230031 | 64 | 263 | 2.0 | 7.0 | 0.00 | 0.00 | 0.00 | 52 | 1018.5 |
| 20260831225514 | 64 | 263 | 2.0 | 10.0 | 0.00 | 0.00 | 0.00 | 53 | 1018.2 |
| 20260831225022 | 64 | 263 | 3.0 | 10.0 | 0.00 | 0.00 | 0.00 | 53 | 1018.2 |
| 20260831224523 | 64 | 263 | 3.0 | 11.0 | 0.00 | 0.00 | 0.00 | 53 | 1018.2 |
| 20260831223355 | 63 | 263 | 4.0 | 12.0 | 0.00 | 0.00 | 0.00 | 54 | 1018.5 |
| 20260831222857 | 63 | 263 | 4.0 | 12.0 | 0.00 | 0.00 | 0.00 | 54 | 1018.5 |
| 20260831222358 | 63 | 263 | 3.0 | 12.0 | 0.00 | 0.00 | 0.00 | 54 | 1018.5 |
| 20260831221226 | 63 | 263 | 3.0 | 11.0 | 0.00 | 0.00 | 0.00 | 55 | 1018.7 |
| 20260831220726 | 62 | 263 | 2.0 | 9.0 | 0.00 | 0.00 | 0.00 | 55 | 1018.7 |
| 20260831220215 | 62 | 263 | 2.0 | 5.0 | 0.00 | 0.00 | 0.00 | 56 | 1018.7 |
| 20260831213811 | 60 | 263 | 3.0 | 8.0 | 0.00 | 0.00 | 0.00 | 59 | 1018.5 |
| 20260831213307 | 59 | 263 | 2.0 | 8.0 | 0.00 | 0.00 | 0.00 | 61 | 1018.5 |
| 20260831211518 | 58 | 263 | 3.0 | 8.0 | 0.00 | 0.00 | 0.00 | 62 | 1018.5 |
| 20260831210959 | 58 | 263 | 3.0 | 8.0 | 0.00 | 0.00 | 0.00 | 62 | 1018.6 |
| 20260831210508 | 58 | 263 | 2.0 | 8.0 | 0.00 | 0.00 | 0.00 | 62 | 1018.6 |
| 20260831210009 | 58 | 263 | 2.0 | 9.0 | 0.00 | 0.00 | 0.00 | 62 | 1018.6 |
| 20260831205457 | 58 | 263 | 3.0 | 9.0 | 0.00 | 0.00 | 0.00 | 62 | 1018.6 |
| 20260831204335 | 58 | 263 | 2.0 | 9.0 | 0.00 | 0.00 | 0.00 | 63 | 1018.7 |
| 20260831203839 | 57 | 263 | 2.0 | 7.0 | 0.00 | 0.00 | 0.00 | 63 | 1018.7 |
| 20260831203329 | 57 | 263 | 2.0 | 7.0 | 0.00 | 0.00 | 0.00 | 63 | 1018.7 |
| 20260831202823 | 57 | 263 | 2.0 | 7.0 | 0.00 | 0.00 | 0.00 | 63 | 1018.6 |
| 20260831202332 | 57 | 263 | 2.0 | 6.0 | 0.00 | 0.00 | 0.00 | 63 | 1018.6 |
| 20260831201153 | 57 | 263 | 2.0 | 8.0 | 0.00 | 0.00 | 0.00 | 62 | 1018.8 |
| 20260831200645 | 57 | 263 | 2.0 | 8.0 | 0.00 | 0.00 | 0.00 | 62 | 1018.8 |
| 20260831200129 | 57 | 263 | 2.0 | 8.0 | 0.00 | 0.00 | 0.00 | 62 | 1018.8 |
| 20260831195612 | 58 | 263 | 2.0 | 7.0 | 0.00 | 0.00 | 0.00 | 62 | 1018.9 |
| 20260831195107 | 58 | 263 | 2.0 | 6.0 | 0.00 | 0.00 | 0.00 | 62 | 1018.9 |
| 20260831194549 | 58 | 263 | 2.0 | 6.0 | 0.00 | 0.00 | 0.00 | 62 | 1018.9 |
| 20260831193419 | 58 | 263 | 2.0 | 9.0 | 0.00 | 0.00 | 0.00 | 61 | 1019.0 |
| 20260831192913 | 58 | 263 | 2.0 | 9.0 | 0.00 | 0.00 | 0.00 | 61 | 1019.0 |
| 20260831192420 | 58 | 263 | 2.0 | 9.0 | 0.00 | 0.00 | 0.00 | 62 | 1019.0 |
| 20260831191920 | 57 | 263 | 2.0 | 8.0 | 0.00 | 0.00 | 0.00 | 62 | 1019.0 |
| 20260831191407 | 57 | 263 | 2.0 | 6.0 | 0.00 | 0.00 | 0.00 | 62 | 1019.0 |
| 20260831190908 | 57 | 263 | 1.0 | 6.0 | 0.00 | 0.00 | 0.00 | 62 | 1019.1 |
| 20260831190412 | 57 | 263 | 1.0 | 6.0 | 0.00 | 0.00 | 0.00 | 61 | 1019.1 |
| 20260831185900 | 57 | 263 | 1.0 | 6.0 | 0.00 | 0.00 | 0.00 | 61 | 1019.2 |
| 20260831185352 | 58 | 263 | 2.0 | 6.0 | 0.00 | 0.00 | 0.00 | 61 | 1019.2 |
| 20260831184836 | 58 | 263 | 2.0 | 6.0 | 0.00 | 0.00 | 0.00 | 61 | 1019.2 |
| 20260831184342 | 58 | 263 | 2.0 | 6.0 | 0.00 | 0.00 | 0.00 | 60 | 1019.4 |
| 20260831183830 | 58 | 263 | 2.0 | 6.0 | 0.00 | 0.00 | 0.00 | 60 | 1019.4 |
| 20260831182719 | 58 | 263 | 2.0 | 7.0 | 0.00 | 0.00 | 0.00 | 60 | 1019.6 |
| 20260831182221 | 58 | 263 | 3.0 | 9.0 | 0.00 | 0.00 | 0.00 | 60 | 1019.6 |
| 20260831181703 | 58 | 263 | 2.0 | 9.0 | 0.00 | 0.00 | 0.00 | 60 | 1019.6 |
| 20260831181205 | 58 | 263 | 3.0 | 9.0 | 0.00 | 0.00 | 0.00 | 59 | 1019.7 |
| 20260831180649 | 58 | 263 | 3.0 | 9.0 | 0.00 | 0.00 | 0.00 | 59 | 1019.7 |
| 20260831180133 | 58 | 263 | 3.0 | 7.0 | 0.00 | 0.00 | 0.00 | 59 | 1019.7 |
| 20260831175633 | 58 | 263 | 2.0 | 7.0 | 0.00 | 0.00 | 0.00 | 59 | 1020.0 |
| 20260831175125 | 58 | 263 | 2.0 | 9.0 | 0.00 | 0.00 | 0.00 | 59 | 1020.0 |
| 20260831174604 | 58 | 263 | 2.0 | 9.0 | 0.00 | 0.00 | 0.00 | 59 | 1020.0 |
| 20260831174045 | 58 | 263 | 3.0 | 9.0 | 0.00 | 0.00 | 0.00 | 59 | 1020.0 |
| 20260831173526 | 58 | 263 | 3.0 | 9.0 | 0.00 | 0.00 | 0.00 | 59 | 1020.0 |
| 20260831173005 | 58 | 263 | 2.0 | 7.0 | 0.00 | 0.00 | 0.00 | 59 | 1020.0 |
| 20260831172504 | 58 | 263 | 2.0 | 7.0 | 0.00 | 0.00 | 0.00 | 59 | 1020.1 |
| 20260831171950 | 58 | 263 | 2.0 | 8.0 | 0.00 | 0.00 | 0.00 | 59 | 1020.1 |
| 20260831171458 | 58 | 263 | 2.0 | 8.0 | 0.00 | 0.00 | 0.00 | 59 | 1020.1 |
| 20260831170325 | 58 | 263 | 2.0 | 8.0 | 0.00 | 0.00 | 0.00 | 60 | 1020.4 |
| 20260831165816 | 58 | 263 | 1.0 | 5.0 | 0.00 | 0.00 | 0.00 | 60 | 1020.6 |
| 20260831165323 | 58 | 263 | 1.0 | 4.0 | 0.00 | 0.00 | 0.00 | 59 | 1020.6 |
| 20260831164829 | 58 | 263 | 1.0 | 4.0 | 0.00 | 0.00 | 0.00 | 59 | 1020.6 |
| 20260831164326 | 58 | 263 | 1.0 | 4.0 | 0.00 | 0.00 | 0.00 | 59 | 1020.8 |
| 20260831163834 | 58 | 263 | 1.0 | 4.0 | 0.00 | 0.00 | 0.00 | 58 | 1020.8 |
| 20260831163326 | 59 | 263 | 1.0 | 3.0 | 0.00 | 0.00 | 0.00 | 58 | 1020.8 |
| 20260831162833 | 59 | 263 | 1.0 | 5.0 | 0.00 | 0.00 | 0.00 | 58 | 1021.0 |
| 20260831162334 | 59 | 263 | 1.0 | 5.0 | 0.00 | 0.00 | 0.00 | 58 | 1021.0 |
| 20260831161825 | 59 | 263 | 2.0 | 11.0 | 0.00 | 0.00 | 0.00 | 57 | 1021.0 |
| 20260831160646 | 59 | 263 | 2.0 | 11.0 | 0.00 | 0.00 | 0.00 | 57 | 1021.2 |
| 20260831160141 | 59 | 263 | 2.0 | 8.0 | 0.00 | 0.00 | 0.00 | 58 | 1021.2 |
| 20260831155622 | 59 | 263 | 2.0 | 6.0 | 0.00 | 0.00 | 0.00 | 57 | 1021.5 |
| 20260831155123 | 59 | 263 | 1.0 | 6.0 | 0.00 | 0.00 | 0.00 | 57 | 1021.5 |
| 20260831154607 | 59 | 263 | 1.0 | 6.0 | 0.00 | 0.00 | 0.00 | 57 | 1021.5 |
| 20260831154057 | 59 | 263 | 1.0 | 6.0 | 0.00 | 0.00 | 0.00 | 57 | 1021.8 |
| 20260831153558 | 59 | 263 | 1.0 | 5.0 | 0.00 | 0.00 | 0.00 | 56 | 1021.8 |
| 20260831153058 | 59 | 263 | 1.0 | 5.0 | 0.00 | 0.00 | 0.00 | 56 | 1021.8 |
| 20260831152555 | 59 | 263 | 2.0 | 8.0 | 0.00 | 0.00 | 0.00 | 56 | 1022.0 |
| 20260831152104 | 60 | 263 | 2.0 | 8.0 | 0.00 | 0.00 | 0.00 | 55 | 1022.0 |
| 20260831150922 | 59 | 263 | 2.0 | 8.0 | 0.00 | 0.00 | 0.00 | 55 | 1022.1 |
| 20260831150410 | 59 | 263 | 2.0 | 6.0 | 0.00 | 0.00 | 0.00 | 56 | 1022.1 |
| 20260831145904 | 59 | 263 | 2.0 | 8.0 | 0.00 | 0.00 | 0.00 | 56 | 1022.2 |
| 20260831145348 | 59 | 263 | 2.0 | 8.0 | 0.00 | 0.00 | 0.00 | 56 | 1022.2 |
| 20260831144217 | 59 | 263 | 2.0 | 8.0 | 0.00 | 0.00 | 0.00 | 56 | 1022.3 |
| 20260831143724 | 59 | 263 | 2.0 | 6.0 | 0.00 | 0.00 | 0.00 | 56 | 1022.3 |
| 20260831142547 | 58 | 263 | 2.0 | 8.0 | 0.00 | 0.00 | 0.00 | 57 | 1022.6 |
| 20260831142028 | 58 | 263 | 2.0 | 8.0 | 0.00 | 0.00 | 0.00 | 57 | 1022.6 |
| 20260831140928 | 58 | 263 | 1.0 | 6.0 | 0.00 | 0.00 | 0.00 | 59 | 1022.8 |
| 20260831140422 | 57 | 263 | 1.0 | 5.0 | 0.00 | 0.00 | 0.00 | 60 | 1022.8 |
| 20260831135924 | 57 | 263 | 1.0 | 5.0 | 0.00 | 0.00 | 0.00 | 60 | 1022.8 |
| 20260831135419 | 57 | 263 | 1.0 | 5.0 | 0.00 | 0.00 | 0.00 | 61 | 1023.2 |
| 20260831134919 | 57 | 263 | 1.0 | 5.0 | 0.00 | 0.00 | 0.00 | 61 | 1023.2 |
| 20260831134401 | 57 | 263 | 0.0 | 4.0 | 0.00 | 0.00 | 0.00 | 62 | 1023.4 |
| 20260831133853 | 57 | 263 | 0.0 | 4.0 | 0.00 | 0.00 | 0.00 | 62 | 1023.4 |
| 20260831132726 | 57 | 263 | 0.0 | 3.0 | 0.00 | 0.00 | 0.00 | 62 | 1023.8 |
| 20260831132229 | 57 | 263 | 1.0 | 3.0 | 0.00 | 0.00 | 0.00 | 63 | 1023.8 |
| 20260831131055 | 57 | 263 | 0.0 | 2.0 | 0.00 | 0.00 | 0.00 | 62 | 1023.8 |
| 20260831130548 | 57 | 263 | 0.0 | 2.0 | 0.00 | 0.00 | 0.00 | 62 | 1023.8 |
| 20260831130035 | 57 | 263 | 0.0 | 6.0 | 0.00 | 0.00 | 0.00 | 63 | 1023.8 |
| 20260831124902 | 57 | 263 | 1.0 | 6.0 | 0.00 | 0.00 | 0.00 | 68 | 1023.8 |
| 20260831124342 | 57 | 263 | 1.0 | 4.0 | 0.00 | 0.00 | 0.00 | 68 | 1023.8 |
| 20260831123834 | 56 | 263 | 1.0 | 4.0 | 0.00 | 0.00 | 0.00 | 68 | 1023.8 |
| 20260831123332 | 56 | 263 | 1.0 | 4.0 | 0.00 | 0.00 | 0.00 | 68 | 1023.8 |
| 20260831122819 | 56 | 263 | 1.0 | 4.0 | 0.00 | 0.00 | 0.00 | 68 | 1023.9 |
| 20260831122312 | 56 | 263 | 1.0 | 4.0 | 0.00 | 0.00 | 0.00 | 69 | 1023.9 |
| 20260831121817 | 55 | 263 | 0.0 | 4.0 | 0.00 | 0.00 | 0.00 | 70 | 1023.9 |
| 20260831121308 | 55 | 263 | 0.0 | 3.0 | 0.00 | 0.00 | 0.00 | 71 | 1023.9 |
| 20260831120813 | 55 | 263 | 0.0 | 3.0 | 0.00 | 0.00 | 0.00 | 71 | 1023.9 |
| 20260831120309 | 55 | 263 | 0.0 | 1.0 | 0.00 | 0.00 | 0.00 | 71 | 1023.9 |
| 20260831115115 | 56 | 263 | 0.0 | 0.0 | 0.00 | 0.00 | 0.00 | 70 | 1024.0 |
| 20260831114601 | 56 | 263 | 0.0 | 1.0 | 0.00 | 0.00 | 0.00 | 70 | 1024.0 |
| 20260831114057 | 56 | 263 | 0.0 | 0.0 | 0.00 | 0.00 | 0.00 | 70 | 1024.1 |
| 20260831113544 | 56 | 263 | 0.0 | 2.0 | 0.00 | 0.00 | 0.00 | 71 | 1024.1 |